Regional Weather Roundup
Issued by NWS

Home | Current Version | Previous Version | Graphics & Text | Print | Product List | Glossary On
Versions: 1 2 3 4 5 6 7 8 9 10 11 12 13 14 15 16 17 18 19 20 21 22 23 24 25 26 27 28 29 30 31 32 33 34 35 36 37 38 39 40 41 42 43 44 45 46 47 48 49 50
000
ASUS43 KMKX 020100
RWRWI

WISCONSIN REGIONAL WEATHER ROUNDUP
NATIONAL WEATHER SERVICE MILWAUKEE/SULLIVAN WI
800 PM CDT FRI AUG 01 2014

NOTE: "FAIR" INDICATES FEW OR NO CLOUDS BELOW 12,000 FEET WITH NO
SIGNIFICANT WEATHER AND/OR OBSTRUCTIONS TO VISIBILITY.

WIZ001-002-006>008-014>016-023>028-020200-
NORTHWEST WISCONSIN

CITY           SKY/WX    TMP DP  RH WIND       PRES   REMARKS
SUPERIOR ARPT  PTCLDY    61  54  78 NE6       30.07S
ASHLAND        CLEAR     65  61  87 N5        30.08S
HAYWARD        CLEAR     73  61  65 NE3       30.08R
SIREN          MOCLDY    77  59  52 CALM      30.06S
RICE LAKE      CLEAR     73  60  61 NE5       30.08S
LADYSMITH      CLEAR     74  59  59 E3        30.10R
EAU CLAIRE     NOT AVBL
MENOMONIE      CLEAR     77  58  51 NE3       30.06S
NEW RICHMOND   PTCLDY    78  59  51 CALM      30.05F
OSCEOLA        PTCLDY    79  60  51 W3        30.07S HX  80
$$

WIZ003>005-009-010-017-018-020200-
NORTH CENTRAL WISCONSIN

CITY           SKY/WX    TMP DP  RH WIND       PRES   REMARKS
WOODRUFF       CLEAR     72  55  55 N3        30.11R
RHINELANDER    PTCLDY    68  56  65 CALM      30.11R
EAGLE RIVER    PTCLDY    69  52  54 N3        30.10R
LAND O LAKES   PTCLDY    70  56  61 CALM      30.12R
PHILLIPS       MOCLDY    67  60  76 CALM      30.10R
TOMAHAWK       PTCLDY    68  61  77 CALM      30.10R
MEDFORD        CLEAR     71  60  68 CALM      30.10R
MERRILL        MOCLDY    72  64  77 CALM      30.09R
$$

WIZ029-030-035-036-043>047-020200-
CENTRAL WISCONSIN

CITY           SKY/WX    TMP DP  RH WIND       PRES   REMARKS
WAUSAU         MOCLDY    69  60  73 VRB3      30.08R
MOSINEE        NOT AVBL
MARSHFIELD     MOCLDY    65  61  87 SW7       30.09R
STEVENS POINT  CLOUDY    65  56  73 SW5       30.09R
WAUPACA        CLOUDY    70  54  57 CALM      30.08S
WAUTOMA        NOT AVBL
WISC RAPIDS    LGT RAIN  65  57  75 W5        30.10R
CAMP DOUGLAS   CLOUDY    63  63 100 SE8       30.10F
$$

WIZ011>013-019>022-031-037>040-048>050-020200-
NORTHEAST WISCONSIN

CITY           SKY/WX    TMP DP  RH WIND       PRES   REMARKS
ANTIGO         MOCLDY    65  60  84 CALM      30.09S
STURGEON BAY   MOCLDY    68  59  73 S6        30.07R
GREEN BAY      CLOUDY    71  64  78 SW6       30.06R
MANITOWOC      NOT AVBL
APPLETON       NOT AVBL
CLINTONVILLE   CLOUDY    68  55  64 W3        30.07S
OSHKOSH        CLOUDY    69  64  84 W3        30.07R
$$

WIZ032>034-041-042-053>061-020200-
SOUTHWEST WISCONSIN

CITY           SKY/WX    TMP DP  RH WIND       PRES   REMARKS
LA CROSSE      PTCLDY    80  61  52 SW3       30.05R HX  81
SPARTA         CLOUDY    71  55  58 E12       30.10R
VIROQUA        FAIR      75  66  73 CALM      30.09S
BOSCOBEL       PTCLDY    79  61  53 E5        30.07R HX  80
PRAIRIE DU CHI CLEAR     75  61  60 E3        30.06S
PLATTEVILLE    FAIR      75  60  61 N3        30.09R
$$

WIZ056-057-062-063-064-067-068-020200-
SOUTH CENTRAL WISCONSIN

CITY           SKY/WX    TMP DP  RH WIND       PRES   REMARKS
BARABOO/DELLS  CLOUDY    63  57  83 S5        30.10F
LONE ROCK      MOCLDY    73  54  51 E14       30.10R
WATERTOWN      RAIN      66  59  76 NW17G26   30.11R
MADISON        LGT RAIN  64  57  78 NE10      30.09F
MIDDLETON      CLOUDY    67  57  70 NE16G23   30.10F
MONROE         CLOUDY    72  54  53 NE17G25   30.10R
JANESVILLE     MOCLDY    73  54  49 N20       30.09R THUNDER
$$

WIZ051-052-058>065-066-070>072-020200-
SOUTHEAST WISCONSIN

CITY           SKY/WX    TMP DP  RH WIND       PRES   REMARKS
MILWAUKEE      TSTM      66  55  67 S10       30.10F
WAUKESHA       CLOUDY    63  55  77 SE5       30.15R
MILWAUKEE/TIMM NOT AVBL
RACINE         TSTM      65  57  75 N9        30.14R
BURLINGTON     RAIN      60  57  90 NE6       30.14R
KENOSHA        CLOUDY    68  58  70 N15G21    30.12R
FOND DU LAC    CLOUDY    69  60  73 SE5       30.08R
SHEBOYGAN      CLOUDY    68  59  73 SW9       30.08R
WEST BEND      CLOUDY    68  55  64 S7        30.08F
JUNEAU         LGT RAIN  68  47  47 SW18G25   30.09F
$$

LSZ147-162-020200-
LAKE SUPERIOR

STATION/POSITION TIME  TEMP    WIND        PRES    WAVE
                       AIR SEA DIR/SP/G            HT/PER
                 (UTC) (F)     (DEG/KT/KT) (MB)    (FT/S)
W MID LAKE BUOY  2350   51 47   30/  4/  4 1018.6R   0
PORT WING        0000   63      20/ 12/ 14 1017.9S
SAXON HARBOR     0040             CALM     1018.6S
$$

LMZ867-665-643>646-020200-
LAKE MICHIGAN

STATION/POSITION TIME  TEMP    WIND        PRES    WAVE
                       AIR SEA DIR/SP/G            HT/PER
                 (UTC) (F)     (DEG/KT/KT) (MB)    (FT/S)
N MID LAKE BUOY  2350   64 61  150/  4/  4 1017.5S   0
NORTHPORT PIER   0000   65     150/  6/  8 1017.9S
ALGOMA LAKESHORE 0006             CALM       N/A
KEWAUNEE LAKESHO 0000   62     180/  4/  5 1017.1F
SHEBOYGAN LAKESH 0000   70     210/  5/  6 1017.7F
PORT WASHINGTON  0040   69     260/  9/ 13 1018.6F
ATWATER BUOY     0000   72     110/ 10     1019.0F
MILWAUKEE LAKESH 0000   67     170/ 10/ 13   N/A
S MID LAKE BUOY  2350   67 65  190/  8/  8 1018.4R   0
KENOSHA   LAKESH 0000   70     180/  8/ 12 1017.9R
$$

TC  - TEMPERATURE IN CELSIUS
VSB - VISIBILITY IN STATUTE MILES
WCI - WIND CHILL INDEX
HX  - HEAT INDEX




USA.gov is the U.S. government's official web portal to all federal, state and local government web resources and services.